Weather History for McMinnville, OR

Change the Weather History Date:

Thursday, February 27, 2014

  Actual Average Record
Temperature  
Mean Temperature 44 °F 44 °F  
Max Temperature 47 °F 53 °F 70 °F (1968)
Min Temperature 41 °F 35 °F 16 °F (1962)
Degree Days  
Heating Degree Days 21 21  
Month to date heating degree days 640 604  
Since 1 July heating degree days 3411 3359  
Cooling Degree Days 0 0  
Month to date cooling degree days 0 0  
Year to date cooling degree days 0 0  
Moisture  
Dew Point 41 °F    
Average Humidity 85    
Maximum Humidity 100    
Minimum Humidity 70    
Precipitation  
Precipitation 0.15 in 0.17 in 1.81 in (1972)
Month to date precipitation 5.58 4.27  
Year to date precipitation 8.27 10.37  
Sea Level Pressure  
Sea Level Pressure 29.73 in    
Wind  
Wind Speed 3 mph (North)    
Max Wind Speed 12 mph    
Max Gust Speed 15 mph    
Visibility 8 miles    
Events Rain    
T = Trace of Precipitation, MM = Missing Value Source: NWS Daily Summary

Daily Weather History Graph

Daily Weather History Graph

Search for Another Location

Airport:

Trip Planner

Search our weather history database for the weather conditions in past years. The results will help you decide how hot, cold, wet, or windy it might be!

Date:

Astronomy

Feb. 27, 2014 Rise Set
Actual Time 6:53 AM PST 5:57 PM PST
Civil Twilight 6:24 AM PST 6:26 PM PST
Nautical Twilight 5:50 AM PST 7:01 PM PST
Astronomical Twilight 5:16 AM PST 7:35 PM PST
Moon 5:33 AM PST (2/27) 4:27 PM PST (2/27)
Length of Visible Light 12h 02m
Length of Day
11h 03m
Waning Crescent, 3% of the Moon is Illuminated
Feb 27
Waning Crescent
Mar 1
New
Mar 8
First Quarter
Mar 16
Full
Mar 23
Last Quarter

Hourly Weather History & Observations

Time (PST) Temp. Windchill Dew Point Humidity Pressure Visibility Wind Dir Wind Speed Gust Speed Precip Events Conditions
12:53 AM 42.1 °F 37.1 °F 33.1 °F 70% 29.65 in 10.0 mi North 8.1 mph - N/A   Clear
1:53 AM 42.1 °F 38.4 °F 33.1 °F 70% 29.65 in 10.0 mi North 5.8 mph - N/A   Scattered Clouds
2:53 AM 42.1 °F 37.7 °F 34.0 °F 73% 29.64 in 10.0 mi North 6.9 mph - N/A   Overcast
3:53 AM 42.1 °F 38.4 °F 34.0 °F 73% 29.64 in 10.0 mi North 5.8 mph - N/A   Overcast
4:53 AM 42.1 °F 39.2 °F 35.1 °F 76% 29.64 in 10.0 mi North 4.6 mph - 0.00 in   Overcast
5:53 AM 41.0 °F - 37.0 °F 86% 29.66 in 10.0 mi Calm Calm - N/A   Overcast
6:53 AM 41.0 °F - 39.0 °F 93% 29.68 in 10.0 mi Calm Calm - 0.00 in Rain Light Rain
7:53 AM 41.0 °F 39.0 °F 39.0 °F 93% 29.71 in 7.0 mi SE 3.5 mph - 0.02 in Rain Light Rain
8:53 AM 42.1 °F - 39.9 °F 92% 29.73 in 8.0 mi Calm Calm - 0.02 in Rain Light Rain
9:53 AM 43.0 °F - 39.0 °F 86% 29.75 in 10.0 mi Calm Calm - 0.02 in Rain Light Rain
10:53 AM 43.0 °F 41.3 °F 39.9 °F 89% 29.76 in 10.0 mi WNW 3.5 mph - 0.02 in Rain Light Rain
11:53 AM 44.1 °F - 41.0 °F 89% 29.77 in 9.0 mi Calm Calm - 0.01 in Rain Light Rain
12:06 PM 44.1 °F 42.5 °F 42.1 °F 93% 29.76 in 9.0 mi West 3.5 mph - 0.01 in Rain Light Rain
12:36 PM 44.1 °F - 42.1 °F 93% 29.76 in 5.0 mi Calm Calm - 0.03 in Rain Light Rain
12:53 PM 44.1 °F - 41.0 °F 89% 29.76 in 6.0 mi Calm Calm - 0.04 in Rain Light Rain
1:21 PM 44.1 °F 42.5 °F 42.1 °F 93% 29.75 in 8.0 mi NNW 3.5 mph - 0.01 in Rain Light Rain
1:53 PM 45.0 °F 43.5 °F 42.1 °F 90% 29.75 in 10.0 mi North 3.5 mph - 0.02 in Rain Light Rain
2:05 PM 45.0 °F - 42.1 °F 90% 29.74 in 10.0 mi Calm Calm - 0.00 in Rain Light Rain
2:24 PM 46.0 °F 44.8 °F 43.0 °F 89% 29.74 in 9.0 mi NNE 3.5 mph - 0.00 in   Overcast
2:53 PM 46.0 °F 43.9 °F 43.0 °F 89% 29.74 in 10.0 mi NNE 4.6 mph - 0.00 in   Overcast
3:53 PM 46.9 °F - 44.1 °F 90% 29.75 in 8.0 mi Calm Calm - N/A   Overcast
4:53 PM 46.9 °F - 45.0 °F 93% 29.75 in 8.0 mi Calm Calm - N/A   Overcast
5:53 PM 46.9 °F - 44.1 °F 90% 29.75 in 7.0 mi Calm Calm - N/A   Overcast
6:53 PM 46.0 °F 44.8 °F 44.1 °F 93% 29.76 in 8.0 mi East 3.5 mph - N/A   Overcast
7:53 PM 46.0 °F 44.8 °F 45.0 °F 96% 29.76 in 5.0 mi SE 3.5 mph - N/A   Overcast
8:53 PM 46.0 °F - 45.0 °F 96% 29.76 in 4.0 mi Calm Calm - N/A   Overcast
9:38 PM 46.0 °F 44.8 °F 45.0 °F 96% 29.77 in 4.0 mi NNE 3.5 mph - N/A   Overcast
9:53 PM 46.0 °F 43.9 °F 44.1 °F 93% 29.77 in 5.0 mi North 4.6 mph - N/A   Overcast
10:43 PM 45.0 °F 41.8 °F 44.1 °F 97% 29.76 in 4.0 mi North 5.8 mph - N/A   Overcast
10:53 PM 45.0 °F 41.8 °F 44.1 °F 97% 29.76 in 5.0 mi North 5.8 mph - N/A   Overcast
11:53 PM 45.0 °F - 44.1 °F 97% 29.74 in 4.0 mi Calm Calm - N/A   Overcast